| time (UTC) | temp F | wind direction | speed MPH | gust MPH | rain 1hr in | rain 24hr in | rain mn in | humidity % | barometer mb |
| 20260905064831 | 61 | 272 | 0.0 | 2.0 | 0.00 | 0.01 | 0.00 | 97 | 1015.1 |
| 20260905063831 | 62 | 288 | 0.0 | 3.0 | 0.00 | 0.01 | 0.00 | 97 | 1015.3 |
| 20260905062831 | 62 | 286 | 0.0 | 3.0 | 0.00 | 0.01 | 0.00 | 97 | 1015.3 |
| 20260905061900 | 62 | 285 | 1.0 | 3.0 | 0.00 | 0.01 | 0.00 | 97 | 1015.3 |
| 20260905055900 | 63 | 292 | 2.0 | 3.0 | 0.00 | 0.01 | 0.00 | 96 | 1015.2 |
| 20260905054900 | 63 | 299 | 1.0 | 4.0 | 0.00 | 0.01 | 0.00 | 97 | 1015.3 |
| 20260905053859 | 63 | 294 | 1.0 | 3.0 | 0.00 | 0.01 | 0.00 | 97 | 1015.3 |
| 20260905052900 | 63 | 309 | 1.0 | 4.0 | 0.00 | 0.01 | 0.00 | 98 | 1015.4 |
| 20260905051859 | 63 | 305 | 2.0 | 5.0 | 0.00 | 0.01 | 0.00 | 98 | 1015.4 |
| 20260905050859 | 62 | 346 | 1.0 | 1.0 | 0.00 | 0.01 | 0.00 | 97 | 1015.5 |
| 20260905044859 | 61 | 216 | 0.0 | 2.0 | 0.00 | 0.01 | 0.00 | 97 | 1015.7 |
| 20260905043859 | 61 | 216 | 0.0 | 3.0 | 0.00 | 0.01 | 0.00 | 97 | 1015.6 |
| 20260905042859 | 61 | 216 | 2.0 | 3.0 | 0.00 | 0.01 | 0.00 | 97 | 1015.5 |
| 20260905041858 | 61 | 231 | 0.0 | 2.0 | 0.00 | 0.01 | 0.00 | 97 | 1015.5 |
| 20260905035858 | 60 | 240 | 1.0 | 2.0 | 0.00 | 0.02 | 0.01 | 97 | 1015.5 |
| 20260905034858 | 60 | 315 | 0.0 | 2.0 | 0.00 | 0.02 | 0.01 | 96 | 1015.5 |
| 20260905033858 | 60 | 315 | 1.0 | 1.0 | 0.00 | 0.02 | 0.01 | 96 | 1015.5 |
| 20260905032857 | 60 | 315 | 0.0 | 2.0 | 0.00 | 0.02 | 0.01 | 95 | 1015.6 |
| 20260905031858 | 60 | 315 | 2.0 | 2.0 | 0.00 | 0.03 | 0.01 | 94 | 1015.5 |
| 20260905030857 | 61 | 302 | 0.0 | 1.0 | 0.00 | 0.03 | 0.01 | 93 | 1015.5 |
| 20260905025857 | 62 | 298 | 1.0 | 4.0 | 0.00 | 0.03 | 0.01 | 95 | 1015.5 |
| 20260905021857 | 60 | 296 | 0.0 | 0.0 | 0.00 | 0.03 | 0.01 | 94 | 1015.4 |
| 20260905020856 | 60 | 296 | 0.0 | 2.0 | 0.00 | 0.03 | 0.01 | 93 | 1015.5 |
| 20260905015856 | 60 | 296 | 2.0 | 2.0 | 0.00 | 0.03 | 0.01 | 93 | 1015.5 |
| 20260905014856 | 61 | 296 | 0.0 | 1.0 | 0.00 | 0.03 | 0.01 | 92 | 1015.6 |
| 20260905013856 | 61 | 296 | 0.0 | 2.0 | 0.00 | 0.03 | 0.01 | 92 | 1015.6 |
| 20260905012856 | 62 | 296 | 2.0 | 3.0 | 0.00 | 0.03 | 0.01 | 92 | 1015.7 |
| 20260905011856 | 62 | 300 | 2.0 | 3.0 | 0.00 | 0.03 | 0.01 | 91 | 1015.7 |
| 20260905010856 | 63 | 300 | 1.0 | 2.0 | 0.00 | 0.03 | 0.01 | 89 | 1015.5 |
| 20260905005856 | 64 | 300 | 0.0 | 2.0 | 0.00 | 0.03 | 0.01 | 87 | 1015.6 |
| 20260905003855 | 65 | 299 | 2.0 | 3.0 | 0.00 | 0.03 | 0.01 | 85 | 1015.5 |
| 20260905001855 | 65 | 307 | 2.0 | 3.0 | 0.00 | 0.03 | 0.01 | 86 | 1015.4 |
| 20260905000855 | 65 | 309 | 1.0 | 3.0 | 0.00 | 0.03 | 0.01 | 85 | 1015.3 |
| 20260904235854 | 65 | 309 | 0.0 | 2.0 | 0.00 | 0.03 | 0.01 | 84 | 1015.4 |
| 20260904233854 | 66 | 312 | 1.0 | 4.0 | 0.00 | 0.03 | 0.01 | 81 | 1015.3 |
| 20260904231854 | 67 | 317 | 2.0 | 4.0 | 0.00 | 0.03 | 0.01 | 81 | 1015.2 |
| 20260904230854 | 67 | 313 | 3.0 | 4.0 | 0.00 | 0.03 | 0.01 | 80 | 1015.2 |
| 20260904225854 | 67 | 314 | 4.0 | 5.0 | 0.00 | 0.03 | 0.01 | 80 | 1015.0 |
| 20260904224853 | 68 | 312 | 3.0 | 6.0 | 0.00 | 0.03 | 0.01 | 80 | 1015.1 |
| 20260904223853 | 69 | 340 | 2.0 | 6.0 | 0.00 | 0.03 | 0.01 | 76 | 1015.0 |
| 20260904222853 | 70 | 347 | 2.0 | 9.0 | 0.00 | 0.03 | 0.01 | 76 | 1015.1 |
| 20260904221853 | 71 | 324 | 5.0 | 10.0 | 0.00 | 0.03 | 0.01 | 74 | 1014.8 |
| 20260904220853 | 72 | 316 | 3.0 | 10.0 | 0.00 | 0.03 | 0.01 | 72 | 1015.2 |
| 20260904214852 | 72 | 337 | 5.0 | 9.0 | 0.00 | 0.03 | 0.01 | 74 | 1015.2 |
| 20260904213852 | 72 | 316 | 5.0 | 12.0 | 0.00 | 0.03 | 0.01 | 73 | 1015.3 |
| 20260904211852 | 72 | 304 | 8.0 | 14.0 | 0.00 | 0.03 | 0.01 | 73 | 1015.2 |
| 20260904210852 | 73 | 327 | 8.0 | 11.0 | 0.00 | 0.03 | 0.01 | 73 | 1015.2 |
| 20260904205852 | 73 | 344 | 4.0 | 12.0 | 0.00 | 0.03 | 0.01 | 73 | 1015.4 |
| 20260904203851 | 74 | 313 | 8.0 | 15.0 | 0.00 | 0.03 | 0.01 | 72 | 1015.4 |
| 20260904202851 | 74 | 313 | 12.0 | 14.0 | 0.00 | 0.03 | 0.01 | 71 | 1015.6 |
| 20260904201851 | 73 | 319 | 10.0 | 17.0 | 0.00 | 0.03 | 0.01 | 71 | 1015.7 |
| 20260904200851 | 73 | 310 | 8.0 | 16.0 | 0.00 | 0.03 | 0.01 | 71 | 1015.7 |
| 20260904194850 | 73 | 326 | 5.0 | 12.0 | 0.00 | 0.03 | 0.01 | 72 | 1015.8 |
| 20260904193850 | 73 | 351 | 4.0 | 14.0 | 0.00 | 0.03 | 0.01 | 73 | 1015.8 |
| 20260904192850 | 73 | 284 | 7.0 | 14.0 | 0.00 | 0.03 | 0.01 | 73 | 1015.8 |
| 20260904191850 | 73 | 322 | 6.0 | 14.0 | 0.00 | 0.03 | 0.01 | 72 | 1015.9 |
| 20260904190850 | 74 | 360 | 9.0 | 13.0 | 0.00 | 0.03 | 0.01 | 73 | 1016.0 |
| 20260904185849 | 74 | 304 | 8.0 | 14.0 | 0.00 | 0.03 | 0.01 | 74 | 1016.1 |
| 20260904184849 | 73 | 304 | 9.0 | 16.0 | 0.00 | 0.03 | 0.01 | 71 | 1015.9 |
| 20260904183849 | 74 | 325 | 6.0 | 14.0 | 0.00 | 0.03 | 0.01 | 74 | 1016.0 |
| 20260904182849 | 74 | 348 | 8.0 | 14.0 | 0.00 | 0.03 | 0.01 | 73 | 1016.1 |
| 20260904181849 | 74 | 344 | 3.0 | 12.0 | 0.00 | 0.03 | 0.01 | 72 | 1016.3 |
| 20260904180848 | 73 | 332 | 6.0 | 18.0 | 0.00 | 0.03 | 0.01 | 74 | 1016.2 |
| 20260904175848 | 73 | 11 | 7.0 | 15.0 | 0.00 | 0.03 | 0.01 | 73 | 1016.2 |
| 20260904173848 | 73 | 291 | 14.0 | 16.0 | 0.00 | 0.03 | 0.01 | 72 | 1016.5 |
| 20260904172848 | 73 | 288 | 4.0 | 15.0 | 0.00 | 0.03 | 0.01 | 75 | 1016.4 |
| 20260904171847 | 73 | 333 | 9.0 | 19.0 | 0.00 | 0.03 | 0.01 | 74 | 1016.4 |
| 20260904165847 | 72 | 5 | 6.0 | 13.0 | 0.00 | 0.03 | 0.01 | 79 | 1016.8 |
| 20260904164846 | 71 | 294 | 4.0 | 15.0 | 0.00 | 0.03 | 0.01 | 78 | 1016.8 |
| 20260904163847 | 72 | 341 | 8.0 | 13.0 | 0.00 | 0.03 | 0.01 | 77 | 1016.8 |
| 20260904162846 | 72 | 342 | 13.0 | 14.0 | 0.00 | 0.03 | 0.01 | 77 | 1016.7 |
| 20260904160846 | 72 | 309 | 12.0 | 14.0 | 0.01 | 0.03 | 0.01 | 78 | 1016.7 |
| 20260904155846 | 71 | 298 | 9.0 | 12.0 | 0.01 | 0.04 | 0.01 | 78 | 1016.6 |
| 20260904154846 | 71 | 320 | 5.0 | 17.0 | 0.01 | 0.04 | 0.01 | 80 | 1016.5 |
| 20260904153845 | 71 | 5 | 8.0 | 13.0 | 0.01 | 0.04 | 0.01 | 81 | 1016.5 |
| 20260904152845 | 71 | 301 | 12.0 | 14.0 | 0.01 | 0.04 | 0.01 | 81 | 1016.6 |
| 20260904151845 | 71 | 10 | 7.0 | 13.0 | 0.01 | 0.04 | 0.01 | 81 | 1016.5 |
| 20260904150845 | 71 | 328 | 3.0 | 12.0 | 0.00 | 0.03 | 0.00 | 83 | 1016.7 |
| 20260904145845 | 70 | 280 | 6.0 | 12.0 | 0.00 | 0.03 | 0.00 | 84 | 1016.6 |
| 20260904144845 | 69 | 338 | 5.0 | 12.0 | 0.00 | 0.03 | 0.00 | 86 | 1016.5 |
| 20260904143844 | 70 | 298 | 2.0 | 8.0 | 0.00 | 0.03 | 0.00 | 88 | 1016.4 |
| 20260904142844 | 69 | 285 | 2.0 | 10.0 | 0.00 | 0.03 | 0.00 | 89 | 1016.6 |
| 20260904141844 | 68 | 315 | 3.0 | 13.0 | 0.00 | 0.03 | 0.00 | 88 | 1016.5 |
| 20260904140844 | 68 | 300 | 4.0 | 12.0 | 0.00 | 0.03 | 0.00 | 91 | 1016.6 |
| 20260904135843 | 68 | 313 | 4.0 | 8.0 | 0.00 | 0.03 | 0.00 | 93 | 1016.7 |
| 20260904134844 | 67 | 336 | 0.0 | 6.0 | 0.00 | 0.03 | 0.00 | 95 | 1016.7 |
| 20260904133844 | 66 | 348 | 3.0 | 8.0 | 0.00 | 0.03 | 0.00 | 95 | 1016.8 |
| 20260904132843 | 66 | 295 | 2.0 | 7.0 | 0.00 | 0.03 | 0.00 | 96 | 1016.8 |
| 20260904130843 | 66 | 298 | 5.0 | 8.0 | 0.00 | 0.03 | 0.00 | 96 | 1016.6 |
| 20260904125843 | 66 | 310 | 3.0 | 12.0 | 0.00 | 0.03 | 0.00 | 96 | 1016.3 |
| 20260904124842 | 66 | 284 | 10.0 | 13.0 | 0.00 | 0.03 | 0.00 | 96 | 1016.4 |
| 20260904123843 | 65 | 311 | 8.0 | 10.0 | 0.00 | 0.03 | 0.00 | 96 | 1016.5 |
| 20260904121842 | 65 | 285 | 8.0 | 10.0 | 0.00 | 0.03 | 0.00 | 98 | 1016.5 |
| 20260904120842 | 65 | 300 | 2.0 | 8.0 | 0.00 | 0.03 | 0.00 | 97 | 1016.6 |
| 20260904115842 | 65 | 296 | 3.0 | 8.0 | 0.00 | 0.03 | 0.00 | 97 | 1016.5 |
| 20260904114842 | 65 | 286 | 3.0 | 10.0 | 0.00 | 0.03 | 0.00 | 97 | 1016.5 |
| 20260904113841 | 65 | 317 | 4.0 | 11.0 | 0.00 | 0.03 | 0.00 | 97 | 1016.3 |
| 20260904112841 | 65 | 284 | 3.0 | 9.0 | 0.00 | 0.03 | 0.00 | 97 | 1016.2 |
| 20260904110841 | 65 | 302 | 2.0 | 6.0 | 0.00 | 0.03 | 0.00 | 97 | 1016.0 |
| 20260904105841 | 64 | 332 | 2.0 | 9.0 | 0.00 | 0.03 | 0.00 | 97 | 1016.1 |
| 20260904104841 | 64 | 291 | 2.0 | 6.0 | 0.00 | 0.03 | 0.00 | 97 | 1016.1 |
| 20260904103841 | 64 | 316 | 2.0 | 5.0 | 0.00 | 0.03 | 0.00 | 97 | 1016.0 |
| 20260904102840 | 64 | 305 | 2.0 | 5.0 | 0.00 | 0.03 | 0.00 | 97 | 1015.9 |
| 20260904101840 | 64 | 307 | 1.0 | 8.0 | 0.00 | 0.03 | 0.00 | 97 | 1015.9 |
| 20260904100840 | 64 | 280 | 3.0 | 8.0 | 0.00 | 0.03 | 0.00 | 97 | 1015.7 |
| 20260904094840 | 65 | 298 | 3.0 | 7.0 | 0.00 | 0.03 | 0.00 | 98 | 1015.9 |
| 20260904092839 | 65 | 300 | 4.0 | 6.0 | 0.00 | 0.03 | 0.00 | 98 | 1015.8 |
| 20260904090839 | 65 | 291 | 1.0 | 6.0 | 0.00 | 0.03 | 0.00 | 99 | 1015.8 |
| 20260904085839 | 65 | 273 | 3.0 | 7.0 | 0.00 | 0.03 | 0.00 | 99 | 1015.6 |
| 20260904084839 | 66 | 304 | 4.0 | 8.0 | 0.00 | 0.03 | 0.00 | 100 | 1015.5 |
| 20260904083839 | 66 | 266 | 6.0 | 8.0 | 0.00 | 0.03 | 0.00 | 100 | 1015.4 |
| 20260904081838 | 66 | 298 | 2.0 | 7.0 | 0.00 | 0.03 | 0.00 | 100 | 1015.3 |
| 20260904080838 | 66 | 306 | 4.0 | 7.0 | 0.00 | 0.03 | 0.00 | 100 | 1015.2 |
| 20260904075838 | 66 | 300 | 1.0 | 8.0 | 0.00 | 0.03 | 0.00 | 100 | 1015.1 |
| 20260904073837 | 66 | 318 | 3.0 | 7.0 | 0.00 | 0.03 | 0.00 | 100 | 1015.1 |
| 20260904072837 | 65 | 318 | 3.0 | 4.0 | 0.00 | 0.03 | 0.00 | 100 | 1015.0 |
| 20260904071837 | 64 | 182 | 0.0 | 2.0 | 0.00 | 0.03 | 0.00 | 100 | 1014.8 |
| 20260904065837 | 65 | 187 | 1.0 | 2.0 | 0.00 | 0.03 | 0.00 | 100 | 1014.8 |